Location: Yamada Observatory
(36.7980°N, 119.2990°W)
Time: 12:55:48
(UTC-08:00)

Tiangong 1 - Visible Passes

Search period start: 20 January 2018 00:00
Search period end: 30 January 2018 00:00
Orbit: 262 x 287 km, 42.8° (Epoch: 20 January)

Date Brightness Start Highest point End Pass type
(mag) Time Alt. Az. Time Alt. Az. Time Alt. Az.
20 Jan 2.0 17:58:52 10° NW 18:00:56 22° N 18:01:59 17° NE visible
21 Jan 1.6 17:58:18 10° NW 18:00:32 28° NNE 18:01:45 18° ENE visible
22 Jan 0.9 17:57:35 10° NW 17:59:58 42° NNE 18:01:32 17° E visible
23 Jan 0.3 17:56:45 10° WNW 17:59:13 75° NNE 18:01:22 12° ESE visible
24 Jan 1.1 17:55:52 10° WNW 17:58:18 54° SSW 18:00:42 10° SE visible
25 Jan 2.6 17:55:01 10° W 17:57:11 27° SSW 17:59:19 10° SSE visible
26 Jan 3.6 17:54:24 10° WSW 17:55:54 15° SW 17:57:22 10° S visible
